Wind_Speed
17 22 22 25 26 24 23 24 27 28 29 31 32 33 35 36 38 39 40 40 41 42 43 44 43 42 41 38 36 37 39 38 37 36 33 34 34 34 35 36 36 36 33
20 18 19 18 20 23 26 27 28 30 32 33 36 38 40 41 41 40 41 43 44 45 44 44 43 43 43 42 41 40 42 43 44 44 42 42 39 39 38 39 40 39 38
13 14 17 19 22 24 27 30 31 34 37 39 41 43 44 44 45 44 44 45 47 48 47 46 45 45 45 45 45 46 45 45 49 50 50 48 47 47 47 45 44 44 44
13 16 19 22 25 29 32 34 35 37 40 42 45 46 47 47 48 47 48 48 49 49 49 48 46 45 44 44 45 47 48 49 51 54 56 57 56 56 55 54 52 50 50
17 19 23 27 31 34 37 39 41 43 45 46 48 48 49 49 49 50 51 52 52 52 51 49 48 47 47 48 49 50 50 50 51 53 55 58 61 64 64 62 61 59 57
21 24 29 33 36 39 41 43 44 46 47 48 49 49 50 50 51 51 53 54 54 53 51 49 50 51 52 54 56 57 59 60 62 62 62 64 64 65 68 70 69 68 67
27 31 34 37 40 43 44 46 48 48 49 50 51 50 51 52 53 54 54 55 55 52 51 52 54 56 59 62 65 66 68 70 72 74 75 75 76 78 78 77 78 78 75
33 37 39 42 44 46 48 50 51 52 52 53 54 53 53 54 56 56 57 56 53 53 56 59 63 65 69 73 76 78 80 81 82 83 84 84 85 86 87 87 86 85 86
38 41 44 46 48 50 52 53 54 55 55 56 56 56 57 58 59 59 59 56 57 59 63 66 69 73 76 80 82 84 87 90 92 92 90 89 89 90 93 94 94 95 93
43 46 47 49 51 53 54 54 56 55 56 57 58 59 60 61 63 63 60 60 62 66 70 74 78 82 84 85 87 90 93 95 94 92 91 90 89 88 89 92 97 102 102
47 49 49 48 50 52 55 56 56 56 57 59 60 61 62 64 63 62 62 66 70 75 80 83 86 89 91 94 96 95 93 88 86 85 85 85 86 86 86 88 90 94 100
49 48 52 54 54 54 56 57 58 59 61 62 62 64 66 64 65 68 71 75 78 80 83 87 91 94 96 95 94 91 87 83 79 76 74 73 73 75 78 80 83 86 92
51 53 57 59 59 62 61 60 61 64 66 66 67 70 69 70 73 76 79 82 85 87 86 91 96 97 91 87 84 81 76 73 69 67 65 62 63 65 68 72 74 76 79
51 57 59 60 61 62 63 64 67 69 69 71 72 73 74 77 78 82 85 87 88 89 91 94 92 87 83 79 74 71 66 61 55 51 50 50 52 54 56 57 59 60 64
53 59 64 67 64 63 65 67 69 70 71 73 73 74 76 80 83 85 86 87 91 93 92 87 80 76 73 68 64 59 53 50 47 46 48 50 52 52 53 52 52 53 55
54 61 70 64 65 66 68 67 69 70 72 74 78 81 84 86 87 87 89 88 87 85 82 75 69 65 60 56 54 48 45 44 47 50 51 51 49 49 48 47 47 48 50
56 64 64 65 67 68 68 69 69 72 75 80 84 87 88 86 87 91 88 85 80 75 71 65 59 54 52 48 44 43 44 46 48 46 45 44 44 46 47 47 48 48 48
60 61 64 67 67 69 70 72 74 76 78 81 86 87 89 94 90 87 85 79 72 67 61 55 50 47 42 41 42 43 47 47 44 43 42 43 45 47 48 47 46 48 49
63 64 65 66 69 71 73 75 78 81 84 85 88 92 91 91 88 84 76 67 62 58 55 50 44 39 38 40 42 46 46 42 41 40 40 42 44 42 41 40 41 42 44
65 65 67 68 70 73 76 79 81 82 84 88 88 89 87 85 79 73 64 60 56 53 50 45 39 36 38 40 43 45 42 42 41 40 40 40 37 35 35 35 37 38 41
65 67 67 69 72 75 78 80 82 86 88 86 85 82 78 73 69 64 57 54 52 48 44 39 36 35 37 39 43 42 40 38 37 37 38 36 35 34 35 37 39 41 42
65 67 69 72 75 77 79 82 86 84 82 81 76 69 69 68 64 58 53 50 48 44 40 36 34 35 36 40 39 38 38 36 34 37 36 33 33 34 38 39 42 41 40
67 70 72 75 77 78 81 83 81 76 76 73 66 66 68 66 60 54 50 47 44 40 37 33 32 34 35 36 34 36 38 36 34 34 32 29 35 35 38 40 39 37 37
70 72 75 76 78 81 81 75 72 73 72 68 66 68 68 64 56 50 46 43 40 38 35 32 31 32 33 33 35 36 36 33 33 33 30 27 34 34 36 35 34 33 34
72 73 74 76 81 79 73 71 71 72 72 68 69 71 68 60 52 47 44 40 37 37 34 32 31 31 31 32 35 35 34 31 29 31 27 27 32 32 31 33 31 30 31
73 74 76 79 78 72 71 71 73 74 70 69 71 72 65 55 47 44 41 37 36 36 33 32 31 31 31 32 35 36 34 30 29 27 25 27 32 32 25 29 29 26 25
Wind_Direction
283 293 297 299 302 302 302 304 305 305 305 306 307 307 308 309 310 308 305 302 299 295 293 292 292 294 294 293 289 287 287 284 284 282 275 271 269 265 263 264 266 266 260
294 301 299 304 305 305 303 303 302 303 306 308 307 308 308 308 307 305 302 300 299 298 294 291 287 285 284 283 282 279 278 280 280 281 279 276 274 270 264 261 261 262 263
296 302 298 299 300 303 304 305 305 307 306 305 304 303 302 302 302 300 298 298 298 297 294 291 288 285 283 281 278 276 274 272 274 276 276 274 274 272 271 266 262 262 260
297 299 302 306 310 308 306 305 305 305 304 303 302 302 303 301 300 299 298 296 295 295 294 290 287 285 284 282 279 276 273 270 269 271 273 274 272 270 267 265 263 260 260
302 306 310 310 308 307 305 306 306 305 304 304 303 302 301 300 300 299 298 298 297 295 293 290 288 287 285 285 284 281 277 272 268 266 267 269 271 270 267 265 263 260 256
304 308 307 307 307 305 305 305 305 304 304 302 302 301 300 299 299 299 298 296 295 293 291 288 287 288 287 286 284 282 280 278 276 273 270 267 265 265 268 268 264 261 258
305 306 305 307 306 305 304 305 305 303 302 302 301 300 301 302 301 300 299 298 296 293 290 290 290 290 289 288 286 284 282 279 276 273 270 266 265 265 261 259 262 263 260
307 307 308 307 306 305 305 305 303 303 304 303 302 301 302 302 303 301 300 298 295 294 294 295 294 293 294 293 291 289 287 284 281 277 273 268 264 261 258 257 255 253 256
307 307 307 307 305 305 305 304 305 306 305 303 303 304 303 302 300 299 297 295 295 295 295 295 294 293 292 291 292 292 292 290 290 288 284 279 274 268 262 258 255 253 249
306 306 306 305 305 306 305 307 306 304 304 303 304 304 303 301 300 299 296 295 295 296 297 297 297 298 299 298 298 297 296 295 292 288 284 281 277 272 267 263 259 254 250
306 305 305 302 298 303 306 305 305 304 302 302 304 303 301 300 300 299 298 298 298 300 300 301 301 300 300 300 300 299 295 291 287 282 278 275 273 270 266 261 257 253 251
302 302 302 306 306 306 308 306 304 303 303 303 303 302 302 302 301 301 301 301 302 302 302 301 300 300 301 300 298 294 290 286 283 279 276 273 270 268 265 263 259 256 252
303 310 312 313 309 309 306 306 305 303 304 306 305 305 304 302 302 303 304 304 304 303 300 299 301 302 300 295 292 289 288 286 284 282 278 274 270 266 264 263 261 260 257
302 310 313 311 308 307 308 308 306 306 308 307 307 305 304 303 303 304 304 304 302 300 299 301 302 298 294 291 290 289 288 286 283 279 276 274 272 270 269 267 265 262 262
297 298 307 308 308 308 307 306 307 307 307 306 305 304 303 302 302 303 302 299 301 303 305 303 297 295 293 291 289 287 284 281 280 278 276 275 275 275 273 271 268 264 261
296 295 302 305 306 305 304 305 305 306 306 305 304 302 301 302 302 302 303 307 308 306 303 299 297 295 292 288 285 283 282 281 281 279 278 276 275 274 274 272 269 265 261
292 296 302 303 303 306 305 305 304 303 303 303 303 301 302 302 304 311 312 311 308 303 301 301 300 295 290 287 284 284 285 286 285 282 280 278 277 277 277 275 272 269 265
302 303 303 305 304 304 304 303 302 301 301 302 303 301 300 308 312 314 312 309 305 303 303 303 297 293 289 286 287 289 291 290 286 283 282 283 282 280 279 277 273 268 264
303 305 305 304 304 304 304 303 302 303 304 303 301 304 311 313 314 313 309 306 305 305 305 302 297 291 287 289 292 293 294 292 291 287 285 284 284 283 280 276 273 270 266
305 305 305 305 304 303 303 303 304 304 302 304 310 311 312 314 313 309 307 305 305 305 303 300 294 291 291 292 295 298 297 297 294 291 289 287 285 284 281 280 278 274 271
305 305 305 304 304 304 304 305 304 304 308 310 312 313 314 314 313 310 307 305 305 304 301 297 292 291 292 296 300 299 297 297 293 290 288 287 288 285 283 282 279 276 272
305 305 305 305 305 304 305 304 306 309 310 312 316 316 318 318 315 310 307 305 304 304 300 294 291 292 296 299 300 303 302 300 295 291 290 288 286 286 285 284 283 281 277
306 305 305 305 305 306 307 308 308 309 313 318 317 320 320 319 314 309 306 304 304 303 298 292 291 292 296 301 306 311 307 302 295 289 285 285 286 290 291 289 285 282 279
305 306 306 307 307 307 308 308 309 313 317 316 318 322 320 317 312 308 306 303 303 301 296 292 290 293 301 306 312 312 309 304 297 290 289 290 290 298 298 292 287 286 284
306 307 309 306 305 308 307 307 310 314 316 315 318 320 318 315 310 307 305 301 301 299 295 291 291 295 301 307 312 313 314 307 297 288 291 292 298 303 302 295 294 295 291
308 309 306 305 307 307 306 308 311 313 314 315 317 318 316 312 307 304 303 298 298 299 293 291 292 296 300 307 312 317 319 315 304 292 294 302 305 308 309 306 306 305 298
Height
5803 5802 5800 5799 5797 5794 5793 5791 5789 5786 5783 5780 5776 5773 5769 5766 5762 5758 5755 5752 5748 5745 5742 5739 5736 5735 5734 5732 5732 5731 5729 5729 5729 5729 5728 5728 5728 5729 5731 5731 5734 5735 5736
5800 5797 5797 5795 5793 5791 5789 5787 5783 5780 5776 5772 5769 5765 5761 5758 5754 5751 5747 5742 5739 5736 5733 5730 5728 5726 5724 5724 5723 5722 5720 5718 5717 5717 5718 5719 5719 5719 5721 5722 5724 5726 5726
5796 5794 5794 5792 5790 5787 5785 5782 5777 5773 5769 5766 5762 5757 5753 5749 5746 5742 5738 5733 5728 5725 5722 5720 5717 5716 5714 5712 5712 5712 5711 5711 5707 5706 5705 5707 5707 5708 5709 5712 5714 5715 5717
5793 5790 5789 5787 5784 5782 5779 5775 5770 5766 5762 5758 5754 5748 5743 5739 5735 5731 5727 5724 5719 5714 5711 5708 5706 5704 5702 5701 5699 5699 5699 5699 5698 5696 5694 5693 5694 5696 5697 5698 5700 5704 5706
5788 5785 5784 5782 5779 5775 5771 5766 5762 5757 5753 5749 5744 5738 5733 5728 5724 5720 5715 5710 5706 5702 5698 5696 5693 5691 5690 5689 5688 5686 5685 5684 5685 5684 5683 5682 5680 5679 5681 5682 5684 5688 5692
5783 5781 5779 5776 5771 5767 5762 5758 5753 5749 5744 5739 5733 5728 5722 5718 5712 5707 5703 5698 5694 5689 5686 5683 5681 5679 5676 5675 5673 5671 5670 5669 5668 5668 5667 5666 5666 5666 5664 5663 5666 5669 5673
5778 5776 5772 5767 5763 5758 5754 5749 5744 5739 5734 5728 5723 5717 5711 5706 5700 5695 5690 5685 5679 5675 5672 5669 5666 5664 5661 5658 5656 5654 5652 5650 5648 5646 5645 5646 5645 5644 5646 5647 5647 5648 5652
5771 5767 5763 5758 5754 5750 5745 5740 5735 5729 5722 5715 5709 5704 5699 5694 5687 5682 5677 5672 5667 5662 5657 5653 5649 5646 5642 5638 5635 5630 5627 5625 5622 5620 5618 5617 5617 5618 5618 5621 5624 5628 5628
5762 5758 5753 5749 5745 5740 5735 5729 5722 5715 5708 5702 5696 5690 5685 5681 5676 5670 5664 5659 5653 5647 5641 5636 5631 5626 5622 5617 5613 5608 5602 5596 5591 5587 5584 5584 5585 5586 5588 5588 5593 5598 5604
5753 5748 5744 5739 5734 5727 5722 5715 5709 5703 5696 5689 5684 5679 5672 5666 5661 5658 5652 5646 5640 5632 5624 5617 5610 5602 5595 5590 5585 5580 5575 5569 5562 5555 5550 5549 5549 5550 5553 5555 5558 5561 5570
5744 5740 5735 5730 5725 5718 5711 5705 5698 5691 5685 5678 5672 5666 5659 5653 5647 5640 5637 5630 5622 5613 5602 5593 5583 5575 5568 5560 5554 5547 5542 5536 5530 5525 5520 5518 5515 5514 5516 5520 5524 5528 5532
5736 5731 5725 5718 5711 5705 5698 5691 5684 5677 5670 5665 5659 5651 5643 5636 5628 5621 5616 5610 5603 5596 5583 5569 5558 5547 5540 5532 5523 5515 5509 5504 5499 5495 5492 5490 5488 5486 5487 5488 5492 5495 5501
5724 5717 5711 5703 5696 5690 5685 5678 5670 5663 5656 5649 5642 5633 5625 5617 5610 5602 5595 5588 5580 5575 5566 5551 5536 5524 5512 5502 5494 5488 5483 5477 5472 5469 5467 5466 5465 5464 5464 5465 5468 5470 5473
5713 5704 5699 5694 5687 5679 5671 5664 5656 5648 5642 5633 5625 5618 5610 5601 5592 5583 5574 5565 5558 5550 5545 5530 5515 5502 5490 5481 5473 5467 5463 5458 5454 5452 5450 5448 5447 5446 5446 5446 5448 5451 5451
5700 5695 5688 5681 5673 5666 5659 5650 5643 5635 5627 5619 5612 5603 5595 5585 5574 5564 5554 5543 5531 5524 5518 5506 5492 5480 5470 5461 5455 5450 5447 5444 5441 5439 5437 5435 5434 5432 5431 5431 5432 5433 5435
5692 5684 5677 5669 5660 5653 5645 5638 5629 5621 5613 5605 5597 5587 5576 5566 5554 5544 5533 5522 5508 5496 5488 5480 5472 5461 5452 5445 5440 5436 5434 5432 5429 5426 5423 5421 5419 5417 5416 5416 5416 5417 5418
5683 5675 5665 5656 5649 5641 5632 5624 5616 5607 5598 5589 5578 5568 5556 5546 5534 5521 5508 5496 5485 5474 5466 5459 5451 5443 5437 5431 5428 5424 5422 5419 5415 5411 5408 5406 5405 5403 5402 5402 5402 5402 5402
5669 5661 5652 5644 5636 5627 5619 5610 5601 5591 5581 5570 5558 5547 5536 5524 5512 5500 5486 5473 5463 5455 5448 5444 5437 5429 5424 5420 5417 5414 5410 5405 5401 5398 5395 5393 5391 5388 5387 5386 5386 5386 5385
5655 5648 5640 5631 5622 5613 5603 5594 5584 5573 5563 5552 5540 5528 5516 5503 5492 5480 5467 5455 5446 5439 5433 5428 5423 5419 5415 5410 5407 5403 5398 5393 5388 5385 5383 5380 5377 5375 5373 5372 5371 5371 5371
5642 5634 5626 5617 5608 5597 5587 5576 5567 5556 5545 5533 5521 5509 5497 5486 5474 5461 5450 5441 5433 5427 5420 5415 5412 5409 5405 5401 5396 5392 5387 5381 5376 5372 5370 5367 5365 5363 5361 5360 5359 5358 5358
5628 5620 5611 5602 5592 5582 5572 5561 5549 5538 5526 5514 5503 5492 5480 5469 5456 5445 5436 5428 5421 5415 5409 5406 5402 5399 5396 5392 5386 5381 5375 5371 5366 5362 5359 5355 5354 5352 5350 5349 5347 5345 5344
5614 5605 5596 5587 5577 5566 5554 5542 5531 5519 5508 5498 5487 5475 5464 5452 5440 5431 5423 5416 5410 5405 5400 5397 5393 5390 5387 5383 5377 5371 5365 5360 5357 5351 5348 5346 5345 5342 5338 5336 5333 5331 5330
5599 5590 5580 5570 5559 5547 5536 5524 5513 5503 5493 5482 5472 5462 5450 5438 5428 5419 5412 5406 5400 5395 5391 5388 5385 5382 5379 5374 5370 5363 5356 5351 5346 5342 5341 5339 5334 5332 5328 5324 5321 5319 5317
5585 5574 5562 5551 5540 5529 5518 5508 5498 5488 5478 5468 5458 5447 5436 5425 5415 5408 5401 5395 5391 5386 5382 5379 5377 5374 5370 5365 5360 5355 5349 5343 5338 5333 5332 5331 5325 5323 5317 5312 5309 5307 5304
5568 5557 5546 5535 5524 5513 5502 5493 5483 5473 5464 5453 5443 5433 5422 5413 5404 5396 5391 5386 5382 5377 5374 5371 5369 5366 5363 5358 5353 5348 5341 5335 5331 5325 5325 5322 5317 5314 5308 5301 5298 5296 5292
5551 5541 5530 5519 5508 5498 5487 5478 5467 5458 5449 5439 5429 5418 5407 5400 5393 5386 5382 5377 5373 5369 5365 5363 5360 5358 5355 5351 5345 5339 5334 5328 5322 5320 5317 5314 5308 5304 5302 5293 5289 5286 5283